sat.trackr.live / text

‹ back to catalog

ONEWEB-0544

NORAD 55144 · 2023-004E

PAYLOAD ACTIVE UNKNOWN

§ Identity

Operator
Country
UK
Launch date
2023-01-10
Launch site
AFETR
Launch vehicle
Mass (kg)
RCS (m²)

Purposes: comms

External: N2YO · Heavens-Above · Gunter

§ Orbital elements

Epoch: 2026-09-19T09:29:51.910944Z

Period
109.20 min
Inclination
87.9160°
Eccentricity
0.0001800
Mean motion
13.18688476 rev/d
Perigee alt
1,188.4 km
Apogee alt
1,191.1 km
Semi-major
7,567.9 km
B*
2.9486e-4
RAAN
316.7458°
Arg perigee
92.2635°
Mean anomaly
267.8703°
Rev number
18,211

§ Raw data

ONEWEB-05441 55144U 23004E   26262.39573971  .00000129  00000+0  29486-3 0  99932 55144  87.9160 316.7458 0001800  92.2635 267.8703 13.18688476182110

JSON: /api/v1/satellites/55144 · /tle

For live sub-satellite position, see the globe view (requires WebGL).

§ Visibility from observer

Set your observer location to see the next 7 days of passes ≥ 10°. The values pass through the URL so the page stays shareable.

No JS? Fill the form by hand. The geolocation button needs JavaScript.